This is the latest recevied weather packets stored in our database for station/object K9ZOG. If no packets are shown the sender has not sent any weather packets the latest 10 day(s).
| Time | Temp. | Humidity | Pressure | Rain* | Wind** | Luminosity | Snow |
|---|---|---|---|---|---|---|---|
| 1777843154 | 12.78° C | 62% | 1008.5 hPa | 0 mm | - | 512 W/m² | - |
| 1777842852 | 12.78° C | 64% | 1008.4 hPa | 0 mm | - | 393 W/m² | - |
| 1777842554 | 12.22° C | 64% | 1008.5 hPa | 0 mm | - | 246 W/m² | - |
| 1777842252 | 12.22° C | 64% | 1008.6 hPa | 0 mm | - | 186 W/m² | - |
| 1777841952 | 11.67° C | 65% | 1008.7 hPa | 0 mm | - | 169 W/m² | - |
| 1777841653 | 11.67° C | 65% | 1008.7 hPa | 0 mm | - | 167 W/m² | - |
| 1777841352 | 11.67° C | 65% | 1008.7 hPa | 0 mm | - | 138 W/m² | - |
| 1777841053 | 11.67° C | 65% | 1008.8 hPa | 0 mm | - | 126 W/m² | - |
| 1777840526 | 11.11° C | 66% | 1008.8 hPa | 0 mm | - | 109 W/m² | - |
| 1777840152 | 11.11° C | 67% | 1009 hPa | 0 mm | - | 100 W/m² | - |
| 1777839852 | 11.11° C | 67% | 1009 hPa | 0.25 mm | - | 104 W/m² | - |
| 1777839552 | 11.11° C | 69% | 1009.2 hPa | 0.25 mm | - | 104 W/m² | - |
| 1777839252 | 10.56° C | 69% | 1009.3 hPa | 0.25 mm | - | 99 W/m² | - |
| 1777838952 | 10.56° C | 70% | 1009.5 hPa | 0.25 mm | - | 103 W/m² | - |
| 1777838660 | 10.56° C | 71% | 1009.5 hPa | 0.25 mm | - | 102 W/m² | - |
| 1777838352 | 10.56° C | 73% | 1009.8 hPa | 0.25 mm | - | 118 W/m² | - |
| 1777838053 | 10° C | 74% | 1009.9 hPa | 0.25 mm | - | 131 W/m² | - |
| 1777837752 | 10° C | 75% | 1010 hPa | 0.25 mm | - | 98 W/m² | - |
| 1777837452 | 10° C | 75% | 1010.3 hPa | 0.25 mm | - | 75 W/m² | - |
| 1777837154 | 10° C | 76% | 1010.4 hPa | 0.25 mm | - | 65 W/m² | - |
| 1777836853 | 10° C | 77% | 1010.5 hPa | 0.25 mm | - | 64 W/m² | - |
| 1777836553 | 10° C | 77% | 1010.7 hPa | 0.25 mm | - | 56 W/m² | - |
| 1777836253 | 10° C | 76% | 1010.6 hPa | 0 mm | - | 52 W/m² | - |
| 1777835952 | 10.56° C | 75% | 1010.9 hPa | 0 mm | - | 48 W/m² | - |
| 1777835652 | 10.56° C | 73% | 1010.8 hPa | 0 mm | - | 43 W/m² | - |
* Rain latest hour (hover to see other rain measurements)
** Current wind speed in m/s (hover to see current wind gust speed)